This is the latest recevied weather packets stored in our database for station/object S50ME-11. If no packets are shown the sender has not sent any weather packets the latest 10 day(s).
| Time | Temp. | Humidity | Pressure | Rain* | Wind** | Luminosity | Snow |
|---|---|---|---|---|---|---|---|
| 1777666542 | 12.78° C | 39% | 1027.9 hPa | - | - | - | - |
| 1777665645 | 13.33° C | 39% | 1027.8 hPa | - | - | - | - |
| 1777665642 | 13.33° C | 39% | 1027.8 hPa | - | - | - | - |
| 1777664744 | 13.89° C | 39% | 1027.7 hPa | - | - | - | - |
| 1777664741 | 13.89° C | 39% | 1027.7 hPa | - | - | - | - |
| 1777663844 | 14.44° C | 38% | 1027.2 hPa | - | - | - | - |
| 1777663841 | 14.44° C | 38% | 1027.2 hPa | - | - | - | - |
| 1777662944 | 15° C | 38% | 1027.2 hPa | - | - | - | - |
| 1777662941 | 15° C | 38% | 1027.2 hPa | - | - | - | - |
| 1777662044 | 16.11° C | 38% | 1027.3 hPa | - | - | - | - |
| 1777662040 | 16.11° C | 38% | 1027.3 hPa | - | - | - | - |
| 1777661144 | 16.67° C | 37% | 1027 hPa | - | - | - | - |
| 1777661140 | 16.67° C | 37% | 1027 hPa | - | - | - | - |
| 1777660279 | 17.78° C | 37% | 1027.7 hPa | - | - | - | - |
| 1777660244 | 17.78° C | 37% | 1027.7 hPa | - | - | - | - |
| 1777660238 | 17.78° C | 37% | 1027.7 hPa | - | - | - | - |
| 1777659344 | 18.33° C | 37% | 1027.5 hPa | - | - | - | - |
| 1777659341 | 18.33° C | 37% | 1027.5 hPa | - | - | - | - |
| 1777658451 | 18.89° C | 36% | 1027 hPa | - | - | - | - |
| 1777658448 | 18.89° C | 36% | 1027 hPa | - | - | - | - |
| 1777657551 | 19.44° C | 36% | 1026.8 hPa | - | - | - | - |
| 1777657548 | 19.44° C | 36% | 1026.8 hPa | - | - | - | - |
| 1777656650 | 20° C | 36% | 1026.7 hPa | - | - | - | - |
| 1777656647 | 20° C | 36% | 1026.7 hPa | - | - | - | - |
| 1777655750 | 20.56° C | 36% | 1027.2 hPa | - | - | - | - |
* Rain since midnight (hover to see other rain measurements)
** Current wind speed in m/s (hover to see current wind gust speed)